Location: Gwatt
(46.7204°N, 7.6223°E)
Time: 23:54:22
(UTC+00:00)

Transit 2A - Pass Details

Date: 21 January 2021
Orbit: 601 x 958 km, 66.7° (Epoch: 07 March)

Event Time Altitude Azimuth Distance (km) Brightness Sun altitude
Rises 04:06:52 0° 208° (SSW) 3,518 - -30.3°
Reaches altitude 10° 04:09:28 10° 207° (SSW) 2,538 - -29.8°
Maximum altitude 04:15:21 81° 122° (ESE) 842 - -28.8°
Exits shadow 04:15:30 80° 95° (E) 843 6.1 -28.8°
Drops below altitude 10° 04:20:41 10° 36° (NE) 2,315 8.9 -27.9°
Sets 04:22:58 0° 35° (NE) 3,189 9.7 -27.5°
